Three Rivers, MI

12:54 AM EST on December 11, 2019 (GMT -0500)
Three Rivers Municipal-Haines

Weather History for KHAI - November, 2019

Change the Weather History Date:

Tuesday, November 12, 2019

  Actual Average Record
Temperature  
Mean Temperature 18 °F -  
Max Temperature 25 °F 46 °F 71 °F (2010)
Min Temperature 11 °F 30 °F 5 °F (2006)
Degree Days  
Heating Degree Days 47    
Moisture  
Dew Point 14 °F    
Average Humidity 78    
Maximum Humidity 89    
Minimum Humidity 64    
Precipitation  
Precipitation 0.00 in - - ()
Sea Level Pressure  
Sea Level Pressure 30.33 in    
Wind  
Wind Speed 7 mph (NW)    
Max Wind Speed 15 mph    
Max Gust Speed 21 mph    
Visibility 7 miles    
Events Snow    
Averages and records for this station are not official NWS values.
T = Trace of Precipitation, MM = Missing Value Source: NWS Daily Summary

Daily Weather History Graph

Daily Weather History Graph

Search for Another Location

Airport or City:

Astronomy

Nov. 12, 2019 Rise Set
Actual Time 7:28 AM EST 5:24 PM EST
Civil Twilight 6:58 AM EST 5:54 PM EST
Nautical Twilight 6:24 AM EST 6:27 PM EST
Astronomical Twilight 5:51 AM EST 7:00 PM EST
Moon 5:51 PM EST (11/12) 7:18 AM EST (11/12)
Length of Visible Light 10h 55m
Length of Day
9h 56m
Full, 100% of the Moon is Illuminated
Nov 12
Full
Nov 19
Last Quarter
Nov 26
New
Dec 4
First Quarter
Dec 12
Full

Hourly Weather History & Observations

Time (EST) Temp. Windchill Dew Point Humidity Pressure Visibility Wind Dir Wind Speed Gust Speed Precip Events Conditions
12:15 AM 20.5 °F 15.6 °F 16.5 °F 85% 30.22 in 10.0 mi NW 3.5 mph - N/A   Scattered Clouds
12:16 AM 20.5 °F 15.6 °F 16.7 °F 85% 30.22 in 10.0 mi NW 3.5 mph - N/A   Scattered Clouds
12:35 AM 19.4 °F 14.3 °F 16.0 °F 87% 30.22 in 10.0 mi WNW 3.5 mph - N/A   Clear
12:55 AM 19.8 °F 11.9 °F 16.5 °F 87% 30.22 in 10.0 mi WNW 5.8 mph - N/A   Clear
1:16 AM 23.5 °F 17.6 °F 20.1 °F 87% 30.23 in 5.0 mi NW 4.6 mph - N/A Snow Light Snow
1:35 AM 24.4 °F 18.6 °F 19.8 °F 82% 30.22 in 3.0 mi NW 4.6 mph - N/A Snow Light Snow
1:36 AM 24.4 °F 20.1 °F 19.8 °F 82% 30.22 in 3.0 mi NW 3.5 mph - N/A Snow Light Snow
1:55 AM 24.6 °F 17.7 °F 19.8 °F 82% 30.22 in 2.0 mi NNW 5.8 mph - N/A Snow Light Snow
2:15 AM 24.3 °F 18.4 °F 20.1 °F 84% 30.22 in 1.2 mi NNW 4.6 mph - N/A Snow Light Snow
2:35 AM 23.7 °F 14.7 °F 19.6 °F 84% 30.22 in 2.0 mi NW 8.1 mph - N/A Snow Light Snow
2:55 AM 23.9 °F 15.0 °F 19.2 °F 82% 30.23 in 1.8 mi NW 8.1 mph - N/A Snow Light Snow
2:56 AM 23.9 °F 14.2 °F 19.2 °F 82% 30.23 in 1.8 mi NW 9.2 mph - N/A Snow Light Snow
3:15 AM 23.0 °F 11.7 °F 18.3 °F 82% 30.23 in 3.0 mi NW 11.5 mph 18.4 mph N/A Snow Light Snow
3:35 AM 22.5 °F 11.7 °F 17.6 °F 82% 30.23 in 4.0 mi NW 10.4 mph - N/A Snow Light Snow
3:36 AM 22.5 °F 11.7 °F 17.6 °F 82% 30.23 in 4.0 mi NW 10.4 mph 16.1 mph N/A Snow Light Snow
3:55 AM 22.5 °F 10.5 °F 17.4 °F 81% 30.23 in 4.0 mi NW 12.7 mph - N/A Snow Light Snow
4:15 AM 22.1 °F 10.6 °F 16.5 °F 79% 30.23 in 5.0 mi NW 11.5 mph 19.6 mph N/A Snow Light Snow
4:35 AM 22.1 °F 8.9 °F 16.2 °F 78% 30.24 in 7.0 mi NNW 15.0 mph 19.6 mph N/A Snow Light Snow
4:55 AM 21.0 °F 9.9 °F 15.1 °F 78% 30.26 in 10.0 mi NNW 10.4 mph - N/A   Scattered Clouds
4:56 AM 21.0 °F 10.6 °F 15.1 °F 78% 30.26 in 10.0 mi North 9.2 mph - N/A   Scattered Clouds
5:16 AM 20.3 °F 11.5 °F 14.4 °F 78% 30.27 in 10.0 mi NNW 6.9 mph - N/A   Clear
5:35 AM 20.7 °F 10.2 °F 13.8 °F 75% 30.27 in 10.0 mi NNW 9.2 mph - N/A   Clear
5:55 AM 20.3 °F 10.6 °F 13.6 °F 75% 30.28 in 10.0 mi NNW 8.1 mph - N/A   Clear
5:56 AM 20.3 °F 11.5 °F 13.6 °F 75% 30.28 in 10.0 mi NNW 6.9 mph - N/A   Clear
6:15 AM 19.9 °F 11.1 °F 12.9 °F 74% 30.29 in 10.0 mi NNW 6.9 mph - N/A   Clear
6:35 AM 18.9 °F 13.7 °F 12.7 °F 77% 30.30 in 10.0 mi North 3.5 mph - N/A   Clear
6:36 AM 18.9 °F 12.1 °F 12.7 °F 77% 30.30 in 10.0 mi NNW 4.6 mph - N/A   Clear
6:55 AM 18.5 °F 10.4 °F 12.7 °F 78% 30.30 in 10.0 mi NNW 5.8 mph - N/A   Clear
7:15 AM 18.5 °F 11.7 °F 12.2 °F 76% 30.31 in 10.0 mi NNW 4.6 mph - N/A   Clear
7:35 AM 18.5 °F 13.3 °F 12.7 °F 78% 30.32 in 10.0 mi NNW 3.5 mph - N/A   Clear
7:55 AM 20.1 °F 15.2 °F 13.8 °F 77% 30.32 in 7.0 mi NNW 3.5 mph - N/A   Clear
8:15 AM 19.6 °F 14.5 °F 13.8 °F 78% 30.33 in 10.0 mi NNW 3.5 mph - N/A   Clear
8:16 AM 19.8 °F 14.7 °F 14.0 °F 78% 30.33 in 10.0 mi NW 3.5 mph - N/A   Clear
8:55 AM 20.8 °F 13.2 °F 15.8 °F 81% 30.35 in 7.0 mi NW 5.8 mph - N/A   Scattered Clouds
9:15 AM 21.0 °F 13.4 °F 15.6 °F 80% 30.36 in 1.0 mi NW 5.8 mph - N/A Snow Light Snow
9:16 AM 20.8 °F 13.2 °F 15.6 °F 80% 30.36 in 1.0 mi WNW 5.8 mph - N/A Snow Light Snow
9:35 AM 21.2 °F 12.6 °F 16.7 °F 83% 30.36 in 0.8 mi WNW 6.9 mph - N/A Snow Snow
9:55 AM 21.2 °F 13.6 °F 17.2 °F 85% 30.37 in 0.2 mi NW 5.8 mph - N/A Snow Snow
10:15 AM 22.5 °F 16.3 °F 17.6 °F 82% 30.37 in 1.2 mi NW 4.6 mph - N/A Snow Light Snow
10:35 AM 22.6 °F 15.3 °F 16.5 °F 77% 30.36 in 1.8 mi NNW 5.8 mph - N/A Snow Light Snow
10:36 AM 22.6 °F 14.3 °F 16.7 °F 78% 30.36 in 2.0 mi NNW 6.9 mph - N/A Snow Light Snow
10:55 AM 23.7 °F 12.6 °F 16.0 °F 72% 30.37 in 4.0 mi NW 11.5 mph - N/A Snow Light Snow
10:56 AM 23.7 °F 12.1 °F 16.0 °F 72% 30.37 in 3.0 mi NW 12.7 mph - N/A Snow Light Snow
11:15 AM 23.9 °F 13.5 °F 15.8 °F 71% 30.37 in 7.0 mi NW 10.4 mph - N/A   Mostly Cloudy
11:35 AM 23.2 °F 15.0 °F 15.4 °F 72% 30.37 in 3.0 mi North 6.9 mph - N/A Snow Light Snow
11:55 AM 23.2 °F 14.1 °F 15.8 °F 73% 30.37 in 1.2 mi North 8.1 mph - N/A Snow Light Snow
11:56 AM 23.0 °F 13.9 °F 15.8 °F 74% 30.37 in 1.0 mi North 8.1 mph - N/A Snow Light Snow
12:15 PM 23.2 °F 13.3 °F 15.1 °F 71% 30.36 in 10.0 mi NNW 9.2 mph - N/A   Scattered Clouds
12:35 PM 24.4 °F 14.2 °F 13.8 °F 64% 30.36 in 7.0 mi NNW 10.4 mph - N/A Snow Light Snow
12:55 PM 22.1 °F 13.7 °F 16.9 °F 80% 30.36 in 0.8 mi NW 6.9 mph 10.4 mph N/A Snow Light Snow
1:15 PM 25.2 °F 14.4 °F 14.9 °F 65% 30.36 in 10.0 mi WNW 11.5 mph 18.4 mph N/A   Scattered Clouds
1:35 PM 23.4 °F 11.6 °F 16.0 °F 73% 30.36 in 7.0 mi NW 12.7 mph 17.3 mph N/A Snow Light Snow
1:55 PM 23.7 °F 14.7 °F 15.4 °F 71% 30.36 in 10.0 mi WNW 8.1 mph - N/A   Scattered Clouds
2:15 PM 24.1 °F 13.1 °F 14.7 °F 68% 30.36 in 1.8 mi NNW 11.5 mph 20.7 mph N/A Snow Light Snow
2:16 PM 23.9 °F 14.2 °F 14.9 °F 69% 30.36 in 1.5 mi North 9.2 mph 20.7 mph N/A Snow Light Snow
2:35 PM 23.5 °F 11.3 °F 17.4 °F 77% 30.36 in 2.0 mi WNW 13.8 mph 19.6 mph N/A Snow Light Snow
2:36 PM 23.7 °F 11.0 °F 17.1 °F 76% 30.36 in 2.5 mi WNW 15.0 mph 19.6 mph N/A Snow Light Snow
2:55 PM 22.8 °F 9.9 °F 13.5 °F 67% 30.35 in 10.0 mi WNW 15.0 mph - N/A   Scattered Clouds
3:15 PM 22.8 °F 9.9 °F 13.1 °F 66% 30.36 in 10.0 mi WNW 15.0 mph - N/A   Scattered Clouds
3:35 PM 23.0 °F 10.1 °F 13.5 °F 67% 30.36 in 10.0 mi NW 15.0 mph - N/A   Scattered Clouds
3:55 PM 22.1 °F 11.3 °F 13.8 °F 70% 30.36 in 10.0 mi WNW 10.4 mph - N/A   Scattered Clouds
3:56 PM 22.1 °F 10.6 °F 13.8 °F 70% 30.36 in 10.0 mi WNW 11.5 mph - N/A   Scattered Clouds
4:15 PM 21.6 °F 12.1 °F 11.3 °F 65% 30.37 in 10.0 mi WNW 8.1 mph 17.3 mph N/A   Clear
4:35 PM 21.7 °F 12.3 °F 13.8 °F 72% 30.37 in 3.0 mi WNW 8.1 mph - N/A Snow Light Snow
4:55 PM 22.6 °F 13.4 °F 14.7 °F 72% 30.38 in 10.0 mi WNW 8.1 mph - N/A   Mostly Cloudy
4:56 PM 22.6 °F 10.7 °F 14.5 °F 71% 30.38 in 10.0 mi WNW 12.7 mph 18.4 mph N/A   Mostly Cloudy
5:15 PM 20.1 °F 6.9 °F 11.8 °F 70% 30.38 in 10.0 mi WNW 13.8 mph - N/A   Scattered Clouds
5:16 PM 20.1 °F 7.5 °F 11.8 °F 70% 30.38 in 10.0 mi WNW 12.7 mph - N/A   Scattered Clouds
5:35 PM 18.9 °F 8.8 °F 12.7 °F 77% 30.39 in 10.0 mi WNW 8.1 mph - N/A   Clear
5:55 PM 16.2 °F 9.0 °F 10.9 °F 80% 30.39 in 10.0 mi West 4.6 mph - N/A   Clear
6:15 PM 16.7 °F 9.6 °F 12.4 °F 83% 30.39 in 10.0 mi West 4.6 mph - N/A Snow Light Snow
6:35 PM 15.8 °F 8.6 °F 11.1 °F 82% 30.39 in 10.0 mi WNW 4.6 mph - N/A   Clear
6:36 PM 15.4 °F 8.1 °F 10.8 °F 82% 30.40 in 10.0 mi WNW 4.6 mph - N/A   Clear
6:55 PM 15.6 °F 8.3 °F 12.0 °F 86% 30.39 in 10.0 mi West 4.6 mph - N/A   Clear
7:15 PM 14.2 °F 8.4 °F 10.4 °F 85% 30.39 in 10.0 mi West 3.5 mph - N/A   Scattered Clouds
7:35 PM 11.1 °F - 7.7 °F 86% 30.39 in 10.0 mi Calm Calm - N/A   Scattered Clouds
7:36 PM 11.1 °F - 7.7 °F 86% 30.39 in 10.0 mi Calm Calm - N/A   Scattered Clouds
7:55 PM 12.6 °F - 9.5 °F 88% 30.40 in 10.0 mi Calm Calm - N/A   Overcast
7:56 PM 12.6 °F - 9.5 °F 88% 30.40 in 10.0 mi Calm Calm - N/A   Overcast
8:15 PM 13.3 °F - 10.6 °F 89% 30.39 in 10.0 mi Calm Calm - N/A   Scattered Clouds
8:35 PM 14.0 °F 6.5 °F 11.3 °F 89% 30.39 in 7.0 mi SW 4.6 mph - N/A Snow Light Snow
8:55 PM 13.8 °F 8.0 °F 10.9 °F 88% 30.39 in 10.0 mi SSW 3.5 mph - N/A Snow Light Snow
9:15 PM 13.6 °F 6.0 °F 10.6 °F 88% 30.39 in 10.0 mi SW 4.6 mph - N/A Snow Light Snow
9:35 PM 14.7 °F 5.9 °F 11.8 °F 88% 30.38 in 10.0 mi SW 5.8 mph - N/A   Overcast
9:55 PM 14.7 °F - 12.0 °F 89% 30.39 in 10.0 mi Calm Calm - N/A   Overcast
10:15 PM 15.1 °F 9.4 °F 12.2 °F 88% 30.39 in 10.0 mi WSW 3.5 mph - N/A   Overcast
10:16 PM 15.1 °F - 12.2 °F 88% 30.39 in 10.0 mi Calm Calm - N/A   Overcast
10:35 PM 15.1 °F 7.7 °F 11.3 °F 85% 30.39 in 10.0 mi SW 4.6 mph - N/A   Overcast
10:55 PM 14.7 °F 7.3 °F 9.3 °F 79% 30.39 in 10.0 mi SW 4.6 mph - N/A   Overcast
10:56 PM 14.7 °F 7.3 °F 9.3 °F 79% 30.39 in 10.0 mi WSW 4.6 mph - N/A   Overcast
11:15 PM 13.6 °F 6.0 °F 7.7 °F 77% 30.39 in 10.0 mi SW 4.6 mph - N/A   Mostly Cloudy
11:16 PM 13.5 °F 5.8 °F 7.7 °F 78% 30.39 in 10.0 mi SW 4.6 mph - N/A   Mostly Cloudy
11:35 PM 13.1 °F 5.4 °F 6.4 °F 75% 30.39 in 10.0 mi SW 4.6 mph - N/A   Mostly Cloudy
11:55 PM 12.4 °F 4.6 °F 4.6 °F 71% 30.39 in 10.0 mi WSW 4.6 mph - N/A   Mostly Cloudy